Simultaneous Nadir Overpasses (SNOs) Predictions

Prediction of SNOs between GOES-16 and NOAA-19 Satellite Orbit:

Table of predicted SNOs for the next 14.0 days since TLE Epoch: 9/21/2024
Index Date Time (GOES-16) GOES-16 Lat,Lon NOAA-19 Lat,Lon Distance(km) Time Diff (sec)
1 09/22/2024 02:17:30 0.05, -75.19 0.60, -72.70 283.37 80
2 09/24/2024 14:33:58 -0.05, -75.22 0.42, -77.27 233.95 80
3 09/25/2024 14:24:15 -0.05, -75.22 -0.26, -74.25 110.39 80
4 09/26/2024 14:11:51 -0.05, -75.23 -0.94, -71.24 454.91 80
5 09/28/2024 02:40:53 0.05, -75.23 -0.77, -78.85 412.91 80
6 09/29/2024 02:28:29 0.05, -75.25 -0.07, -75.84 67.62 80
7 09/30/2024 02:18:45 0.05, -75.26 0.59, -72.82 278.02 80
8 10/02/2024 14:37:53 -0.05, -75.32 0.43, -77.39 235.69 80
9 10/03/2024 14:22:50 -0.05, -75.34 -0.28, -74.38 110.36 80
10 10/04/2024 14:10:27 -0.04, -75.37 -0.99, -71.37 456.49 80
